Regional Weather Roundup
Issued by NWS Kansas City/Pleasant Hill, MO

Home | Current Version | Previous Version | Graphics & Text | Print | Product List | Glossary Off
Versions: 1 2 3 4 5 6 7 8 9 10 11 12 13 14 15 16 17 18 19 20 21 22 23 24 25 26 27 28 29 30 31 32 33 34 35 36 37 38 39 40 41 42 43 44 45 46 47 48 49 50

000
ASUS43 KEAX 180210
RWREAX

WEATHER ROUNDUP FOR EASTERN KANSAS AND NORTHWEST MISSOURI
NATIONAL WEATHER SERVICE KANSAS CITY/PLEASANT HILL MO
900 PM CDT THU APR 17 2014

KSZ040-057-103>105-MOZ028-029-037-043-180300-
...KANSAS CITY METROPOLITAN AREA...

CITY           SKY/WX    TMP DP  RH WIND       PRES   REMARKS
K.C. INTL      CLEAR     43  32  65 SE6       30.28R
K.C. DOWNTOWN  CLEAR     47  32  56 E3        30.28R
LEES SUMMIT    PTCLDY    43  34  70 SE3       30.29R
OLATHE - IXD   MOCLDY    42  34  73 S3        30.29R
OLATHE - OJC   PTCLDY    42  34  73 S3        30.28R
LAWRENCE       CLEAR     41  34  76 SE3       30.28R

$$

MOZ001>008-011>017-020>025-030>033-038>040-044>046-053-054-180300-
...NORTHERN AND CENTRAL MISSOURI...

CITY           SKY/WX    TMP DP  RH WIND       PRES   REMARKS
ST. JOSEPH     CLEAR     46  32  58 S7        30.28R
MOSBY          FAIR      45  36  70 CALM      30.29R
WARRENSBURG    PTCLDY   N/A N/A N/A NW3       30.28S
WHITEMAN AFB   PTCLDY    43  36  74 N7        30.27S
CLINTON        CLOUDY    45  43  93 CALM      30.28R
SEDALIA        MOCLDY    45  41  86 N5        30.27F
WARSAW         NOT AVBL
MARSHALL         N/A     48  39  71 CALM      30.29
CHILLICOTHE      N/A     44  34  67 CALM      30.30R
KIRKSVILLE     PTCLDY    41  33  73 W3        30.29R

$$

MOZ041-047>049-056>058-063>065-088>090-097-180300-
...EASTERN AND SOUTHERN MISSOURI...

CITY           SKY/WX    TMP DP  RH WIND       PRES   REMARKS
ST. LOUIS INTL MOCLDY    57  40  52 N9        30.25R
SPIRIT OF STL  PTCLDY    54  41  61 N6        30.25R
COLUMBIA       CLOUDY    48  39  71 N6        30.26S
JEFFERSON CITY CLOUDY    50  38  63 NW5       30.27R
HANNIBAL       DRIZZLE   48  39  71 N3        30.28S
ROLLA          CLOUDY    51  40  65 N10       30.24R
LEBANON        CLOUDY    52  39  62 N10       30.24S
OSAGE BEACH    CLOUDY    48  36  61 N6        30.28R
SPRINGFIELD    CLOUDY    53  40  61 N10       30.23R
BRANSON        MOCLDY    57  39  51 N8        30.21R
NEVADA         MOCLDY    41  37  87 N6        30.28S
JOPLIN         CLOUDY    49  42  77 N3        30.25S
WEST PLAINS    MOCLDY    58  35  42 SE5       30.22R

$$

IAZ060-094-KSZ022-034>040-054-083-096-NEZ052-066-093-180300-
...KANSAS...SOUTHEAST NEBRASKA AND IOWA...

CITY           SKY/WX    TMP DP  RH WIND       PRES   REMARKS
TOPEKA         CLEAR     47  34  60 S3        30.28R
MANHATTAN      CLOUDY    47  31  53 SE3       30.25R HAZE
EMPORIA        CLEAR     42  32  67 SE3       30.27R HAZE
CHANUTE        MOCLDY    44  37  76 N5        30.27R
WICHITA        PTCLDY    44  36  73 SE7       30.26R
OMAHA          PTCLDY    49  26  41 E5        30.25R
LINCOLN        CLEAR     50  24  36 E7        30.26R
FALLS CITY     CLEAR     49  28  44 SE5       30.26R
LAMONI         CLEAR     49  31  49 CALM      30.26R
DES MOINES     CLEAR     50  29  44 E6        30.28R

$$




USA.gov is the U.S. government's official web portal to all federal, state and local government web resources and services.